HAZ2755 ZSHC-ZHCC

Flight info

Callsign HAZ2755
Flight time 1h 27m
Altitude 32100
Route NIVIK W135 DOGVI W545 VEMEX W163 HFE B208 FYG W596 UNTEL
Aircraft B738/M-SDE2E3FGHIRWXY/LB1

Departure

Time 2026-04-24 11:48
Airport Hangzhou Xiaoshan International Airport (ZSHC)

Arrival

Time 2026-04-24 13:16
Airport Zhengzhou Xinzheng International Airport (ZHCC)
Time Latitude Longitude Altitude Speed Heading
2026-04-24 11:27 30.24340 120.43062 31 ft 0 kts 153°
2026-04-24 11:37 30.24360 120.43050 31 ft 4 kts 155°
2026-04-24 11:37 30.24385 120.43038 31 ft 4 kts 163°
2026-04-24 11:37 30.24410 120.43035 31 ft 4 kts 198°
2026-04-24 11:38 30.24422 120.43043 31 ft 0 kts 244°
2026-04-24 11:41 30.24404 120.43002 31 ft 11 kts 242°
2026-04-24 11:41 30.24367 120.42921 31 ft 11 kts 243°
2026-04-24 11:41 30.24338 120.42845 31 ft 9 kts 271°
2026-04-24 11:41 30.24374 120.42789 31 ft 9 kts 332°
2026-04-24 11:42 30.24429 120.42757 31 ft 9 kts 333°
2026-04-24 11:42 30.24458 120.42703 31 ft 8 kts 262°
2026-04-24 11:42 30.24427 120.42622 31 ft 17 kts 242°
2026-04-24 11:42 30.24360 120.42473 31 ft 22 kts 243°
2026-04-24 11:43 30.24291 120.42319 31 ft 21 kts 243°
2026-04-24 11:43 30.24229 120.42178 31 ft 19 kts 242°
2026-04-24 11:43 30.24170 120.42046 31 ft 18 kts 243°
2026-04-24 11:43 30.24114 120.41921 31 ft 17 kts 242°
2026-04-24 11:44 30.24065 120.41811 31 ft 13 kts 244°
2026-04-24 11:44 30.24028 120.41723 31 ft 11 kts 243°
2026-04-24 11:44 30.23993 120.41647 31 ft 10 kts 241°
2026-04-24 11:44 30.23960 120.41574 31 ft 10 kts 242°
2026-04-24 11:45 30.23929 120.41504 31 ft 10 kts 243°
2026-04-24 11:45 30.23898 120.41434 31 ft 12 kts 243°
2026-04-24 11:45 30.23849 120.41324 31 ft 17 kts 243°
2026-04-24 11:45 30.23799 120.41207 31 ft 16 kts 243°
2026-04-24 11:46 30.23748 120.41099 31 ft 15 kts 242°
2026-04-24 11:46 30.23714 120.41020 31 ft 7 kts 244°
2026-04-24 11:46 30.23691 120.40970 31 ft 7 kts 241°
2026-04-24 11:46 30.23697 120.40920 31 ft 7 kts 314°
2026-04-24 11:47 30.23739 120.40892 31 ft 7 kts 333°
2026-04-24 11:47 30.23784 120.40866 31 ft 7 kts 335°
2026-04-24 11:47 30.23828 120.40858 31 ft 7 kts 30°
2026-04-24 11:47 30.23857 120.40910 31 ft 12 kts 62°
2026-04-24 11:48 30.23945 120.41106 31 ft 57 kts 63°
2026-04-24 11:48 30.24245 120.41781 31 ft 129 kts 62°
2026-04-24 11:48 30.24749 120.42909 164 ft 179 kts 63°
2026-04-24 11:48 30.25323 120.44235 997 ft 183 kts 63°
2026-04-24 11:49 30.25890 120.45509 2158 ft 173 kts 63°
2026-04-24 11:49 30.26453 120.46767 2860 ft 184 kts 63°
2026-04-24 11:49 30.27070 120.48155 3244 ft 207 kts 63°
2026-04-24 11:49 30.27737 120.49657 3948 ft 211 kts 63°
2026-04-24 11:50 30.28411 120.51181 4707 ft 214 kts 63°
2026-04-24 11:50 30.29094 120.52726 5433 ft 218 kts 62°
2026-04-24 11:50 30.29787 120.54296 6170 ft 220 kts 62°
2026-04-24 11:50 30.30491 120.55885 6883 ft 223 kts 61°
2026-04-24 11:51 30.31472 120.57271 7510 ft 227 kts 36°
2026-04-24 11:51 30.32926 120.57964 7819 ft 229 kts
2026-04-24 11:51 30.34484 120.57760 7885 ft 231 kts 339°
2026-04-24 11:51 30.35779 120.56685 7877 ft 232 kts 310°
2026-04-24 11:52 30.36449 120.55009 7874 ft 233 kts 282°
2026-04-24 11:52 30.36463 120.53133 7893 ft 234 kts 264°
2026-04-24 11:52 30.36087 120.51301 7884 ft 235 kts 251°
2026-04-24 11:52 30.35517 120.49532 7885 ft 235 kts 250°
2026-04-24 11:53 30.34931 120.47766 7879 ft 235 kts 250°
2026-04-24 11:53 30.34278 120.46006 7886 ft 245 kts 245°
2026-04-24 11:53 30.33504 120.44219 7884 ft 256 kts 243°
2026-04-24 11:53 30.32656 120.42375 7828 ft 262 kts 243°
2026-04-24 11:54 30.31800 120.40501 7846 ft 263 kts 243°
2026-04-24 11:54 30.30955 120.38625 7858 ft 263 kts 243°
2026-04-24 11:54 30.30114 120.36749 7865 ft 263 kts 243°
2026-04-24 11:54 30.29276 120.34870 7870 ft 263 kts 243°
2026-04-24 11:55 30.28437 120.32987 7890 ft 264 kts 243°
2026-04-24 11:55 30.27582 120.31057 8154 ft 283 kts 245°
2026-04-24 11:55 30.27014 120.28864 8885 ft 287 kts 266°
2026-04-24 11:55 30.27244 120.26586 9753 ft 287 kts 289°
2026-04-24 11:56 30.28237 120.24605 10626 ft 286 kts 312°
2026-04-24 11:56 30.29838 120.23212 11296 ft 296 kts 334°
2026-04-24 11:56 30.31839 120.22443 11705 ft 314 kts 347°
2026-04-24 11:56 30.34021 120.21808 12027 ft 333 kts 341°
2026-04-24 11:57 30.36247 120.20837 12330 ft 350 kts 336°
2026-04-24 11:57 30.38474 120.19686 12847 ft 359 kts 334°
2026-04-24 11:57 30.40759 120.18495 13554 ft 362 kts 334°
2026-04-24 11:57 30.43079 120.17317 14276 ft 365 kts 334°
2026-04-24 11:58 30.45416 120.16141 14974 ft 368 kts 334°
2026-04-24 11:58 30.47738 120.14874 15651 ft 369 kts 329°
2026-04-24 11:58 30.49938 120.13350 16335 ft 369 kts 323°
2026-04-24 11:58 30.52048 120.11652 17006 ft 370 kts 320°
2026-04-24 11:59 30.54124 120.09876 17657 ft 371 kts 319°
2026-04-24 11:59 30.56181 120.08110 18275 ft 374 kts 319°
2026-04-24 11:59 30.58283 120.06316 18837 ft 377 kts 319°
2026-04-24 11:59 30.60409 120.04508 19368 ft 381 kts 319°
2026-04-24 12:00 30.62553 120.02687 19909 ft 384 kts 319°
2026-04-24 12:00 30.64722 120.00845 20426 ft 387 kts 318°
2026-04-24 12:00 30.66902 119.98994 20946 ft 390 kts 318°
2026-04-24 12:00 30.69106 119.97124 21433 ft 394 kts 318°
2026-04-24 12:01 30.71327 119.95239 21906 ft 397 kts 318°
2026-04-24 12:01 30.73567 119.93339 22372 ft 400 kts 318°
2026-04-24 12:01 30.75821 119.91425 22828 ft 402 kts 317°
2026-04-24 12:01 30.78083 119.89487 23245 ft 405 kts 317°
2026-04-24 12:02 30.80359 119.87532 23666 ft 408 kts 317°
2026-04-24 12:02 30.82651 119.85562 24100 ft 410 kts 317°
2026-04-24 12:02 30.84951 119.83581 24513 ft 413 kts 316°
2026-04-24 12:02 30.87264 119.81589 24911 ft 415 kts 316°
2026-04-24 12:03 30.89590 119.79583 25310 ft 417 kts 316°
2026-04-24 12:03 30.91931 119.77564 25678 ft 420 kts 316°
2026-04-24 12:03 30.94282 119.75535 26058 ft 422 kts 316°
2026-04-24 12:03 30.96655 119.73513 26435 ft 424 kts 316°
2026-04-24 12:04 30.99039 119.71470 26767 ft 426 kts 316°
2026-04-24 12:04 31.01428 119.69412 27126 ft 428 kts 315°
2026-04-24 12:04 31.03825 119.67340 27445 ft 430 kts 315°
2026-04-24 12:04 31.06197 119.65286 27866 ft 429 kts 315°
2026-04-24 12:05 31.08618 119.63188 28360 ft 427 kts 315°
2026-04-24 12:05 31.10965 119.61153 28836 ft 425 kts 315°
2026-04-24 12:05 31.13365 119.59070 29294 ft 423 kts 314°
2026-04-24 12:05 31.15720 119.57027 29772 ft 421 kts 314°
2026-04-24 12:06 31.18071 119.54986 30185 ft 421 kts 314°
2026-04-24 12:06 31.20384 119.52976 30604 ft 419 kts 314°
2026-04-24 12:06 31.22714 119.50952 31077 ft 417 kts 314°
2026-04-24 12:06 31.25060 119.48914 31172 ft 424 kts 314°
2026-04-24 12:07 31.27438 119.46845 31388 ft 427 kts 314°
2026-04-24 12:07 31.29820 119.44792 31858 ft 424 kts 313°
2026-04-24 12:07 31.32191 119.42736 32112 ft 425 kts 313°
2026-04-24 12:07 31.34561 119.40673 32173 ft 425 kts 313°
2026-04-24 12:08 31.39280 119.36552 32183 ft 420 kts 313°
2026-04-24 12:08 31.43954 119.32463 32185 ft 419 kts 313°
2026-04-24 12:09 31.48627 119.28370 32184 ft 419 kts 313°
2026-04-24 12:09 31.53298 119.24278 32184 ft 419 kts 313°
2026-04-24 12:10 31.57996 119.20198 32183 ft 419 kts 313°
2026-04-24 12:11 31.64952 119.13982 32183 ft 418 kts 311°
2026-04-24 12:11 31.69242 119.09472 32182 ft 412 kts 307°
2026-04-24 12:12 31.73620 119.05044 32182 ft 416 kts 310°
2026-04-24 12:12 31.78002 119.00595 32183 ft 417 kts 309°
2026-04-24 12:12 31.80034 118.98275 32182 ft 406 kts 300°
2026-04-24 12:13 31.81600 118.95531 32185 ft 393 kts 288°
2026-04-24 12:13 31.83624 118.89648 32183 ft 391 kts 282°
2026-04-24 12:14 31.84563 118.83414 32183 ft 382 kts 265°
2026-04-24 12:14 31.83940 118.77282 32182 ft 380 kts 259°
2026-04-24 12:15 31.83254 118.71070 32182 ft 381 kts 261°
2026-04-24 12:15 31.82690 118.64912 32183 ft 382 kts 262°
2026-04-24 12:16 31.82139 118.58698 32182 ft 382 kts 262°
2026-04-24 12:16 31.81571 118.52477 32183 ft 383 kts 262°
2026-04-24 12:17 31.80998 118.46255 32182 ft 383 kts 261°
2026-04-24 12:17 31.80421 118.40030 32182 ft 384 kts 261°
2026-04-24 12:18 31.79843 118.33801 32183 ft 384 kts 261°
2026-04-24 12:18 31.79378 118.27540 32183 ft 385 kts 265°
2026-04-24 12:19 31.79327 118.21244 32183 ft 385 kts 266°
2026-04-24 12:19 31.79221 118.14950 32183 ft 386 kts 265°
2026-04-24 12:20 31.79097 118.08639 32183 ft 386 kts 265°
2026-04-24 12:20 31.79017 118.02334 32183 ft 386 kts 266°
2026-04-24 12:21 31.78916 117.96030 32183 ft 385 kts 266°
2026-04-24 12:21 31.78802 117.89728 32183 ft 386 kts 265°
2026-04-24 12:22 31.78681 117.83427 32183 ft 386 kts 265°
2026-04-24 12:22 31.78559 117.77126 32182 ft 386 kts 265°
2026-04-24 12:23 31.78438 117.70822 32182 ft 385 kts 265°
2026-04-24 12:23 31.78326 117.64570 32182 ft 385 kts 266°
2026-04-24 12:24 31.78192 117.58271 32182 ft 385 kts 265°
2026-04-24 12:24 31.78043 117.51978 32182 ft 385 kts 265°
2026-04-24 12:25 31.77887 117.45675 32182 ft 386 kts 265°
2026-04-24 12:25 31.77730 117.39376 32182 ft 385 kts 265°
2026-04-24 12:26 31.77711 117.33066 32178 ft 390 kts 275°
2026-04-24 12:26 31.78470 117.29978 32184 ft 400 kts 289°
2026-04-24 12:26 31.79922 117.27156 32183 ft 407 kts 300°
2026-04-24 12:27 31.83492 117.21959 32182 ft 409 kts 302°
2026-04-24 12:27 31.87162 117.16839 32182 ft 409 kts 302°
2026-04-24 12:28 31.90835 117.11717 32182 ft 409 kts 303°
2026-04-24 12:28 31.94504 117.06599 32182 ft 409 kts 303°
2026-04-24 12:29 31.98179 117.01472 32183 ft 410 kts 303°
2026-04-24 12:29 32.01878 116.96366 32182 ft 410 kts 304°
2026-04-24 12:30 32.04954 116.92108 32182 ft 411 kts 304°
2026-04-24 12:30 32.08649 116.86968 32182 ft 411 kts 304°
2026-04-24 12:31 32.12959 116.80957 32182 ft 411 kts 304°
2026-04-24 12:31 32.16024 116.76679 32182 ft 410 kts 304°
2026-04-24 12:32 32.19698 116.71532 32182 ft 410 kts 304°
2026-04-24 12:32 32.23316 116.66335 32182 ft 409 kts 304°
2026-04-24 12:33 32.26929 116.61135 32182 ft 409 kts 304°
2026-04-24 12:33 32.30536 116.55938 32181 ft 409 kts 304°
2026-04-24 12:34 32.34148 116.50730 32181 ft 410 kts 304°
2026-04-24 12:34 32.37784 116.45532 32181 ft 410 kts 304°
2026-04-24 12:35 32.41407 116.40342 32181 ft 409 kts 304°
2026-04-24 12:35 32.45012 116.35128 32180 ft 409 kts 304°
2026-04-24 12:36 32.48607 116.29914 32180 ft 409 kts 304°
2026-04-24 12:36 32.52200 116.24694 32179 ft 409 kts 304°
2026-04-24 12:37 32.55802 116.19463 32179 ft 410 kts 304°
2026-04-24 12:37 32.59442 116.14264 32179 ft 410 kts 305°
2026-04-24 12:38 32.63108 116.09090 32178 ft 410 kts 305°
2026-04-24 12:38 32.66767 116.03906 32178 ft 410 kts 305°
2026-04-24 12:39 32.74086 115.93588 32176 ft 409 kts 305°
2026-04-24 12:40 32.77726 115.88404 32176 ft 409 kts 306°
2026-04-24 12:40 32.81366 115.83208 32176 ft 409 kts 305°
2026-04-24 12:41 32.85008 115.78006 32175 ft 410 kts 306°
2026-04-24 12:41 32.89076 115.73221 32175 ft 416 kts 317°
2026-04-24 12:42 32.93881 115.69324 32173 ft 419 kts 323°
2026-04-24 12:42 32.98887 115.65750 32173 ft 420 kts 324°
2026-04-24 12:43 33.03894 115.62165 32172 ft 420 kts 324°
2026-04-24 12:43 33.08898 115.58575 32171 ft 419 kts 324°
2026-04-24 12:44 33.13502 115.54430 32170 ft 412 kts 312°
2026-04-24 12:44 33.17434 115.49478 32169 ft 411 kts 308°
2026-04-24 12:45 33.21192 115.44349 32168 ft 410 kts 307°
2026-04-24 12:45 33.24934 115.39215 32165 ft 410 kts 307°
2026-04-24 12:46 33.28659 115.34094 32160 ft 411 kts 307°
2026-04-24 12:46 33.32402 115.28942 32159 ft 410 kts 308°
2026-04-24 12:47 33.36146 115.23795 32158 ft 410 kts 308°
2026-04-24 12:47 33.39903 115.18662 32157 ft 410 kts 308°
2026-04-24 12:48 33.43640 115.13522 32156 ft 409 kts 308°
2026-04-24 12:48 33.47370 115.08374 32155 ft 409 kts 307°
2026-04-24 12:49 33.51106 115.03238 32153 ft 408 kts 308°
2026-04-24 12:49 33.54792 114.98146 32151 ft 401 kts 307°
2026-04-24 12:50 33.58433 114.93086 32132 ft 401 kts 307°
2026-04-24 12:50 33.60251 114.90554 31841 ft 398 kts 307°
2026-04-24 12:50 33.62036 114.88067 31454 ft 390 kts 307°
2026-04-24 12:50 33.63800 114.85609 30984 ft 387 kts 307°
2026-04-24 12:51 33.65550 114.83167 30523 ft 384 kts 307°
2026-04-24 12:51 33.67285 114.80748 30067 ft 381 kts 308°
2026-04-24 12:51 33.69114 114.78455 29616 ft 381 kts 316°
2026-04-24 12:51 33.71295 114.76637 29191 ft 383 kts 327°
2026-04-24 12:52 33.73724 114.75293 28728 ft 385 kts 333°
2026-04-24 12:52 33.76230 114.74158 28271 ft 384 kts 336°
2026-04-24 12:52 33.78761 114.73146 27822 ft 383 kts 338°
2026-04-24 12:52 33.81296 114.72168 27374 ft 381 kts 338°
2026-04-24 12:53 33.83809 114.71197 26930 ft 378 kts 338°
2026-04-24 12:53 33.86310 114.70237 26488 ft 376 kts 338°
2026-04-24 12:53 33.88793 114.69278 26049 ft 374 kts 338°
2026-04-24 12:53 33.91234 114.68331 25615 ft 372 kts 339°
2026-04-24 12:54 33.93692 114.67375 25175 ft 371 kts 339°
2026-04-24 12:54 33.96139 114.66422 24738 ft 369 kts 339°
2026-04-24 12:54 33.98574 114.65472 24301 ft 367 kts 339°
2026-04-24 12:54 34.00998 114.64525 23864 ft 365 kts 339°
2026-04-24 12:55 34.03410 114.63582 23429 ft 364 kts 340°
2026-04-24 12:55 34.05811 114.62644 22994 ft 362 kts 340°
2026-04-24 12:55 34.08205 114.61708 22559 ft 360 kts 340°
2026-04-24 12:55 34.10583 114.60778 22125 ft 359 kts 340°
2026-04-24 12:56 34.12827 114.59532 21689 ft 354 kts 324°
2026-04-24 12:56 34.14593 114.57506 21239 ft 351 kts 306°
2026-04-24 12:56 34.15858 114.54988 20762 ft 350 kts 297°
2026-04-24 12:56 34.16905 114.52337 20322 ft 349 kts 294°
2026-04-24 12:57 34.17847 114.49645 19888 ft 347 kts 292°
2026-04-24 12:57 34.18762 114.46953 19458 ft 346 kts 293°
2026-04-24 12:57 34.19678 114.44280 19033 ft 344 kts 293°
2026-04-24 12:57 34.20616 114.41630 18611 ft 342 kts 294°
2026-04-24 12:58 34.21548 114.38987 18189 ft 341 kts 294°
2026-04-24 12:58 34.22469 114.36356 17772 ft 339 kts 294°
2026-04-24 12:58 34.23379 114.33742 17362 ft 337 kts 293°
2026-04-24 12:58 34.24282 114.31141 16954 ft 335 kts 293°
2026-04-24 12:59 34.25180 114.28551 16548 ft 333 kts 293°
2026-04-24 12:59 34.26073 114.25970 16143 ft 331 kts 293°
2026-04-24 12:59 34.26957 114.23411 15741 ft 330 kts 293°
2026-04-24 12:59 34.27838 114.20859 15339 ft 328 kts 293°
2026-04-24 13:00 34.28697 114.18372 15144 ft 320 kts 293°
2026-04-24 13:00 34.29538 114.15936 15071 ft 308 kts 293°
2026-04-24 13:00 34.30348 114.13588 14997 ft 297 kts 293°
2026-04-24 13:00 34.31133 114.11318 14923 ft 287 kts 293°
2026-04-24 13:01 34.31888 114.09129 14849 ft 278 kts 293°
2026-04-24 13:01 34.32615 114.07002 14680 ft 272 kts 293°
2026-04-24 13:01 34.33316 114.04883 14405 ft 271 kts 292°
2026-04-24 13:01 34.33969 114.02904 14145 ft 269 kts 292°
2026-04-24 13:02 34.34660 114.00804 13868 ft 268 kts 292°
2026-04-24 13:02 34.35363 113.98718 13590 ft 267 kts 294°
2026-04-24 13:02 34.36081 113.96656 13312 ft 266 kts 294°
2026-04-24 13:02 34.36792 113.94597 13033 ft 265 kts 293°
2026-04-24 13:03 34.37497 113.92544 12756 ft 263 kts 293°
2026-04-24 13:03 34.38197 113.90497 12454 ft 263 kts 293°
2026-04-24 13:03 34.38892 113.88462 12266 ft 258 kts 293°
2026-04-24 13:03 34.39568 113.86482 12119 ft 252 kts 293°
2026-04-24 13:04 34.40233 113.84534 11869 ft 250 kts 293°
2026-04-24 13:04 34.40896 113.82589 11559 ft 250 kts 293°
2026-04-24 13:04 34.41560 113.80637 11243 ft 251 kts 293°
2026-04-24 13:04 34.42231 113.78677 10932 ft 252 kts 292°
2026-04-24 13:05 34.42899 113.76717 10623 ft 252 kts 292°
2026-04-24 13:05 34.43573 113.74754 10311 ft 253 kts 292°
2026-04-24 13:05 34.44248 113.72790 10011 ft 253 kts 292°
2026-04-24 13:05 34.44924 113.70816 9687 ft 254 kts 291°
2026-04-24 13:06 34.45601 113.68838 9388 ft 254 kts 291°
2026-04-24 13:06 34.46275 113.66864 9072 ft 254 kts 291°
2026-04-24 13:06 34.46947 113.64878 8776 ft 254 kts 290°
2026-04-24 13:06 34.47613 113.62904 8512 ft 252 kts 290°
2026-04-24 13:07 34.48274 113.60940 8240 ft 251 kts 290°
2026-04-24 13:07 34.48940 113.58991 7966 ft 250 kts 290°
2026-04-24 13:07 34.49603 113.57050 7694 ft 248 kts 290°
2026-04-24 13:07 34.50248 113.55141 7420 ft 247 kts 289°
2026-04-24 13:08 34.50889 113.53213 7143 ft 246 kts 290°
2026-04-24 13:08 34.51541 113.51305 6917 ft 243 kts 289°
2026-04-24 13:08 34.52167 113.49457 6874 ft 230 kts 289°
2026-04-24 13:09 34.54004 113.46446 6277 ft 236 kts 335°
2026-04-24 13:09 34.55628 113.46327 5948 ft 240 kts 12°
2026-04-24 13:09 34.57155 113.47112 5688 ft 238 kts 25°
2026-04-24 13:09 34.58624 113.48028 5375 ft 238 kts 25°
2026-04-24 13:10 34.60133 113.48848 5071 ft 237 kts 22°
2026-04-24 13:10 34.61530 113.49879 4732 ft 236 kts 47°
2026-04-24 13:10 34.62209 113.51620 4426 ft 227 kts 83°
2026-04-24 13:10 34.62171 113.53492 4183 ft 219 kts 101°
2026-04-24 13:11 34.61782 113.55259 4051 ft 216 kts 112°
2026-04-24 13:11 34.61226 113.56949 4026 ft 215 kts 116°
2026-04-24 13:11 34.60637 113.58621 4015 ft 215 kts 116°
2026-04-24 13:11 34.60054 113.60303 3973 ft 215 kts 116°
2026-04-24 13:12 34.59488 113.61951 3850 ft 210 kts 116°
2026-04-24 13:12 34.58923 113.63603 3722 ft 215 kts 116°
2026-04-24 13:12 34.58350 113.65284 3446 ft 213 kts 116°
2026-04-24 13:12 34.57793 113.66919 3186 ft 205 kts 116°
2026-04-24 13:13 34.57258 113.68488 2905 ft 198 kts 116°
2026-04-24 13:13 34.56743 113.70000 2640 ft 190 kts 116°
2026-04-24 13:13 34.56247 113.71456 2390 ft 184 kts 116°
2026-04-24 13:13 34.55767 113.72866 2149 ft 178 kts 116°
2026-04-24 13:14 34.55304 113.74225 1922 ft 169 kts 115°
2026-04-24 13:14 34.54868 113.75504 1697 ft 160 kts 115°
2026-04-24 13:14 34.54457 113.76711 1537 ft 150 kts 114°
2026-04-24 13:14 34.54057 113.77885 1286 ft 150 kts 114°
2026-04-24 13:15 34.53663 113.79041 1098 ft 147 kts 114°
2026-04-24 13:15 34.53277 113.80175 910 ft 148 kts 114°
2026-04-24 13:15 34.52880 113.81347 716 ft 148 kts 114°
2026-04-24 13:15 34.52491 113.82490 534 ft 149 kts 114°
2026-04-24 13:16 34.52119 113.83589 510 ft 129 kts 114°
2026-04-24 13:16 34.51840 113.84387 503 ft 66 kts 113°
2026-04-24 13:16 34.51777 113.84677 503 ft 14 kts 91°
2026-04-24 13:16 34.51783 113.84794 503 ft 13 kts 82°
2026-04-24 13:17 34.51797 113.84874 503 ft 8 kts 53°
2026-04-24 13:17 34.51831 113.84922 503 ft 7 kts 79°
2026-04-24 13:17 34.51817 113.84981 503 ft 7 kts 111°
2026-04-24 13:17 34.51799 113.85037 503 ft 9 kts 113°
2026-04-24 13:18 34.51778 113.85124 503 ft 10 kts 66°
2026-04-24 13:18 34.51832 113.85167 503 ft 9 kts 22°
2026-04-24 13:18 34.51915 113.85208 503 ft 17 kts 22°
2026-04-24 13:18 34.52025 113.85263 503 ft 17 kts 22°
2026-04-24 13:19 34.52129 113.85315 503 ft 16 kts 22°
2026-04-24 13:19 34.52228 113.85365 503 ft 15 kts 22°
2026-04-24 13:19 34.52320 113.85411 503 ft 14 kts 22°
2026-04-24 13:19 34.52406 113.85454 503 ft 13 kts 22°
2026-04-24 13:20 34.52461 113.85481 503 ft 13 kts 22°
2026-04-24 13:20 34.52567 113.85535 503 ft 12 kts 22°
2026-04-24 13:20 34.52643 113.85572 503 ft 12 kts 22°
2026-04-24 13:20 34.52692 113.85597 503 ft 11 kts 22°
2026-04-24 13:21 34.52760 113.85631 503 ft 9 kts 22°
2026-04-24 13:21 34.52817 113.85625 503 ft 9 kts 306°
2026-04-24 13:21 34.52842 113.85558 503 ft 9 kts 292°
2026-04-24 13:21 34.52864 113.85495 503 ft 7 kts 294°
2026-04-24 13:22 34.52900 113.85465 503 ft 6 kts 340°
2026-04-24 13:22 34.52925 113.85440 503 ft 5 kts 297°
2026-04-24 13:22 34.52935 113.85410 503 ft 3 kts 292°
2026-04-24 13:22 34.52942 113.85390 503 ft 3 kts 292°
2026-04-24 13:23 34.52943 113.85387 503 ft 0 kts 292°